This demonstration page uses our WeatherBlox Daily Observations layout. Learn more.

Left ArrowRight Arrow

Hourly Observations for March 25, 2021

Temp ( °F °C ) Dew Point ( °F °C ) Humidity (%) Winds ( mph kmh ) Pressure ( in mb ) Visibility ( mi km ) Precip ( " mm )
12:15 am 00:15 Clear 38 3.5 35 1.8 89 89 N N/A 29.92 1013 10 16 N/A
12:35 am 00:35 Clear 38 3.4 35 1.7 89 89 N N/A 29.92 1013 10 16 N/A
12:55 am 00:55 Clear 39 3.8 35 1.7 86 86 SE 3 6 29.92 1013 10 16 N/A
1:15 am 01:15 Clear 38 3.6 35 1.7 88 88 SSE 5 7 29.91 1013 10 16 N/A
1:35 am 01:35 Clear 38 3.3 35 1.5 88 88 SSE 5 7 29.91 1013 10 16 N/A
1:55 am 01:55 Mostly Cloudy 38 3.6 35 1.6 87 87 S 7 11 29.91 1013 10 16 N/A
2:15 am 02:15 Partly Cloudy 39 3.7 36 2 89 89 SSW 6 9 29.91 1013 10 16 N/A
2:35 am 02:35 Clear 38 3.3 36 2 91 91 SSW 5 7 29.90 1013 10 16 N/A
2:55 am 02:55 Clear 37 3 35 1.8 92 92 SW 6 9 29.91 1013 10 16 N/A
3:15 am 03:15 Clear 37 2.6 35 1.6 93 93 SW 5 7 29.91 1013 10 16 N/A
3:35 am 03:35 Clear 36 2.3 35 1.5 95 95 SW 6 9 29.91 1013 10 16 N/A
3:55 am 03:55 Mostly Cloudy 36 2 34 1.1 94 94 SW 5 7 29.92 1013 10 16 N/A
4:15 am 04:15 Partly Cloudy 36 2 34 1.2 95 95 SSW 5 7 29.91 1013 10 16 N/A
4:35 am 04:35 Partly Cloudy 35 1.8 34 1.2 96 96 S 6 9 29.91 1013 10 16 N/A
4:55 am 04:55 Partly Cloudy 34 1.1 33 0.6 97 97 S 5 7 29.91 1013 7 11 N/A
5:15 am 05:15 Mostly Cloudy with Mist and Fog 34 0.9 33 0.4 97 97 N N/A 29.92 1013 5 8 N/A
5:35 am 05:35 Cloudy 35 1.4 34 0.9 97 97 N N/A 29.91 1013 7 11 N/A
5:55 am 05:55 Mostly Cloudy with Mist and Fog 34 1.3 33 0.8 97 97 N N/A 29.89 1012 5 8 N/A
6:15 am 06:15 Mostly Cloudy 35 1.6 34 1.1 97 97 N N/A 29.91 1013 10 16 N/A
6:35 am 06:35 Cloudy 35 1.7 34 1.2 97 97 SW 3 6 29.92 1013 10 16 N/A
6:55 am 06:55 Cloudy 35 1.5 34 1 97 97 SSW 5 7 29.91 1013 10 16 N/A
7:15 am 07:15 Mostly Cloudy 35 1.4 34 0.9 97 97 N N/A 29.91 1013 10 16 N/A
7:35 am 07:35 Partly Cloudy 34 1 33 0.5 97 97 N N/A 29.91 1013 10 16 N/A
7:55 am 07:55 Partly Cloudy with Mist and Fog 33 0.5 32 undefined 96 96 N N/A 29.92 1013 4 6 N/A
8:15 am 08:15 Mostly Cloudy 33 0.3 32 undefined 98 98 N N/A 29.92 1013 7 11 N/A
8:35 am 08:35 Cloudy 33 0.8 33 0.4 97 97 N N/A 29.92 1013 7 11 N/A
8:55 am 08:55 Cloudy 35 1.8 34 1.3 97 97 N N/A 29.91 1013 10 16 N/A
9:15 am 09:15 Cloudy 37 2.7 36 2.2 97 97 N N/A 29.90 1012 10 16 N/A
9:35 am 09:35 Cloudy 38 3.1 36 2.2 94 94 SSE 5 7 29.91 1013 10 16 N/A
9:55 am 09:55 Cloudy 39 3.8 36 2.2 89 89 S 3 6 29.90 1012 10 16 N/A
10:15 am 10:15 Cloudy 40 4.7 36 2.3 85 85 S 6 9 29.89 1012 10 16 N/A
10:35 am 10:35 Cloudy 42 5.4 36 2.3 81 81 SSE 7 11 29.88 1012 10 16 N/A
10:55 am 10:55 Cloudy 42 5.5 36 2.4 81 81 SSE 9 15 29.88 1012 10 16 N/A
11:15 am 11:15 Cloudy 43 6 35 1.8 75 75 SE 10 17 29.88 1012 10 16 N/A
11:35 am 11:35 Cloudy 43 6 36 2 76 76 ESE 8 13 29.87 1011 10 16 N/A
11:55 am 11:55 Cloudy 43 6.1 35 1.7 74 74 SE 10 17 29.87 1011 10 16 N/A
12:15 pm 12:15 Cloudy 44 6.9 35 1.8 70 70 SE 10 17 29.86 1011 10 16 N/A
12:35 pm 12:35 Cloudy 44 6.9 36 2 71 71 SE 12 19 29.85 1011 10 16 N/A
12:55 pm 12:55 Cloudy 44 6.9 35 1.7 70 70 SE 9 15 29.84 1011 10 16 N/A
1:15 pm 13:15 Cloudy 46 7.5 35 1.5 66 66 S 3 6 29.84 1010 10 16 N/A
1:35 pm 13:35 Cloudy 45 7.1 35 1.6 68 68 SW 5 7 29.84 1010 10 16 N/A
1:55 pm 13:55 Cloudy 45 7.4 35 1.9 68 68 SSE 6 9 29.83 1010 10 16 N/A
2:15 pm 14:15 Cloudy 46 7.7 35 1.9 67 67 S 7 11 29.81 1010 10 16 N/A
2:35 pm 14:35 Cloudy 47 8.5 36 2.3 65 65 SSW 6 9 29.80 1009 10 16 N/A
2:55 pm 14:55 Mostly Cloudy 49 9.5 35 1.9 59 59 SSW 6 9 29.78 1008 10 16 N/A
3:15 pm 15:15 Partly Cloudy 49 9.2 35 1.9 61 61 SW 3 6 29.77 1008 10 16 N/A
3:35 pm 15:35 Mostly Cloudy 49 9.4 35 1.7 59 59 SW 8 13 29.77 1008 10 16 N/A
3:55 pm 15:55 Partly Cloudy 50 10.2 35 1.7 56 56 SW 6 9 29.75 1007 10 16 N/A
4:15 pm 16:15 Partly Cloudy 51 10.3 35 1.6 55 55 SSW 5 7 29.75 1007 10 16 N/A
4:35 pm 16:35 Partly Cloudy 52 10.9 35 1.4 52 52 SSW 7 11 29.73 1007 10 16 N/A
4:55 pm 16:55 Sunny 52 11 34 1 50 50 WSW 3 6 29.72 1007 10 16 N/A
5:15 pm 17:15 Partly Cloudy 52 10.9 34 0.9 50 50 N N/A 29.72 1007 10 16 N/A
5:35 pm 17:35 Partly Cloudy 53 11.4 33 0.5 47 47 SW 3 6 29.72 1006 10 16 N/A
5:55 pm 17:55 Partly Cloudy 52 10.9 34 1 51 51 SSW 8 13 29.72 1007 10 16 N/A
6:15 pm 18:15 Partly Cloudy 52 10.9 33 0.7 50 50 SSW 7 11 29.72 1007 10 16 N/A
6:35 pm 18:35 Partly Cloudy 52 11.2 33 0.6 48 48 S 7 11 29.72 1007 10 16 N/A
6:55 pm 18:55 Mostly Cloudy 51 10.7 34 1.1 52 52 SSE 7 11 29.74 1007 10 16 N/A
7:15 pm 19:15 Mostly Cloudy 51 10.3 36 2.2 58 58 SSE 8 13 29.74 1007 10 16 N/A
7:35 pm 19:35 Partly Cloudy 49 9.5 36 2.3 61 61 S 6 9 29.76 1008 10 16 N/A
7:55 pm 19:55 Clear 47 8.2 37 2.6 68 68 SSE 6 9 29.78 1008 10 16 N/A
8:15 pm 20:15 Clear 44 6.8 37 2.5 74 74 SSE 6 9 29.79 1009 10 16 N/A
8:35 pm 20:35 Clear 43 6 36 2.2 77 77 SSE 8 13 29.80 1009 10 16 N/A
8:55 pm 20:55 Clear 42 5.5 36 2.2 80 80 SSE 7 11 29.81 1010 10 16 N/A
9:15 pm 21:15 Clear 41 5.2 36 2.2 81 81 SSE 8 13 29.82 1010 10 16 N/A
9:35 pm 21:35 Clear 40 4.7 36 2.1 83 83 SSE 8 13 29.82 1010 10 16 N/A
9:55 pm 21:55 Clear 40 4.5 35 1.8 83 83 SSE 7 11 29.83 1010 10 16 N/A
10:15 pm 22:15 Clear 40 4.5 35 1.8 83 83 SSE 7 11 29.85 1011 10 16 N/A
10:35 pm 22:35 Clear 40 4.5 35 1.8 83 83 SSE 8 13 29.85 1011 10 16 N/A
10:55 pm 22:55 Clear 39 4 35 1.6 85 85 SSE 7 11 29.87 1011 10 16 N/A
11:15 pm 23:15 Clear 38 3.6 35 1.5 86 86 SSE 6 9 29.87 1012 10 16 N/A
11:35 pm 23:35 Clear 39 3.8 35 1.7 86 86 SSE 6 9 29.88 1012 10 16 N/A
11:55 pm 23:55 Clear 38 3.5 35 1.5 87 87 S 8 13 29.89 1012 10 16 N/A

Powered by AerisWeather